Torna al catalogo

THOR ABLESTAR DEB

AttivoLEO
NORAD 17648·DEBRIS·🇺🇸 United States

Lanciato Jun 29, 1961 da Cape Canaveral Space Force Station

Loading…

Prossimi Passaggi (prossime 24 ore)

TLE

AggiornatoSource: Space-Track

Epoca: Sep 14, 2026, 08:43 UTC

1 17648U 61015LH  26257.36379274  .00002498  00000-0  98773-3 0  9992
2 17648  65.7280 240.3801 0048078 103.6944 256.9505 14.30116301769877

Traccia THOR ABLESTAR DEB in tempo reale con AllMySat

Download on the App Store